BEIDOU-3 M7 (C29)

Last updated on Dec. 12, 2019, 4:25 a.m. UTC

1 43245U 18029A   19345.20163740 -.00000063  00000-0  00000+0 0  9992
2 43245  55.2711  21.8888 0001971 250.9438 120.4271  1.86232756 11576
UTC
Height (km)
Latitude
Longitude
Inclination
Orbital Period
UTC large
Height (km)
Speed (km/s)
/
Latitude / Longitude
Inclination (degrees)
Orbital Period (minutes)
Azimuth
Elevation
Range (km)
Doppler Factor
iOS Compass Heading
iOS Angle

Next 30 passes for location: Hong Kong

Rise time Rise Azimuth (degrees) Set time Set Azimuth (degrees) Duration Max altitude (degrees)

No matching passes for this satellites